Location: Berbisdorf
(50.7638°N, 12.9442°E)
Time: 15:13:11
(UTC+00:00)

Cosmos 2227 Rocket - Pass Details

Date: 07 June 2020
Orbit: 838 x 846 km, 71.0° (Epoch: 09 July)

Event Time Altitude Azimuth Distance (km) Brightness Sun altitude
Rises 00:00:29 0° 322° (NW) 3,419 6.0 -15.5°
Reaches altitude 10° 00:03:22 10° 309° (NW) 2,479 5.0 -15.4°
Maximum altitude 00:07:47 24° 258° (WSW) 1,687 3.5 -15.2°
Enters shadow 00:10:07 19° 224° (SW) 1,932 3.6 -15.2°
